Regional Weather Roundup
Issued by NWS

Home | Current Version | Previous Version | Text Only | Print | Product List | Glossary Off
Versions: 1 2 3 4 5 6 7 8 9 10 11 12 13 14 15 16 17 18 19 20 21 22 23 24 25 26 27 28 29 30 31 32 33 34 35 36 37 38 39 40 41 42 43 44 45 46 47 48 49 50

878
ASUS43 KBIS 270602
RWRND

NORTH DAKOTA REGIONAL WEATHER ROUNDUP
NATIONAL WEATHER SERVICE BISMARCK ND
100 AM CDT TUE JUN 27 2017

NOTE: "FAIR" INDICATES FEW OR NO CLOUDS BELOW 12,000 FEET WITH NO
SIGNIFICANT WEATHER AND/OR OBSTRUCTIONS TO VISIBILITY.


NDZ001>003-009>011-017-270700-
NORTHWEST NORTH DAKOTA

CITY           SKY/WX    TMP DP  RH WIND       PRES   REMARKS
WILLISTON      CLOUDY    71  43  36 S9        29.82F
6HR MIN TEMP:  71; 6HR MAX TEMP:  83;

MINOT          PTCLDY    62  42  47 SE9       29.89F
MINOT AFB      PTCLDY    59  44  58 SE12      29.88F
$$

NDZ018>021-031>035-040>046-270700-
SOUTHWEST NORTH DAKOTA

CITY           SKY/WX    TMP DP  RH WIND       PRES   REMARKS
BISMARCK       PTCLDY    62  38  40 S13       29.98F
6HR MIN TEMP:  58; 6HR MAX TEMP:  76;

DICKINSON      CLOUDY    62  36  37 S21G30    29.89F
GARRISON         N/A     62  42  47 S15       29.92F
6HR MIN TEMP:  62; 6HR MAX TEMP:  76;

HETTINGER ARPT PTCLDY    61  39  44 SE15G25   29.96F
$$

NDZ004>008-012>016-024-026-027-054-270700-
NORTHEAST NORTH DAKOTA

CITY           SKY/WX    TMP DP  RH WIND       PRES   REMARKS
GRAND FORKS    CLEAR     51  43  74 S7        30.00F
GRND FRKS AFB  CLEAR     48  42  81 S5        30.01F
DEVILS LAKE    CLEAR     60  42  51 S10       29.99F
$$

NDZ022-023-025-028>030-036>039-047>053-270700-
SOUTHEAST NORTH DAKOTA

CITY           SKY/WX    TMP DP  RH WIND       PRES   REMARKS
FARGO          CLEAR     56  40  55 S9        30.04F
6HR MIN TEMP:  54; 6HR MAX TEMP:  74;

JAMESTOWN      CLEAR     54  40  59 S10       30.02F
$$





USA.gov is the U.S. government's official web portal to all federal, state and local government web resources and services.